Home > Weather > Garbsen > Past weeks

Flag for Germany Weather for the Past 2 Weeks in Garbsen, Lower Saxony, Germany

Now
28 °F

Ice fog.


Feels Like: 22 °F
Forecast: 34 / 37 °F
Wind: 6 mph from Northeast

Location: Hannover

Current Time: Feb 13, 2016 at 6:03:41 AM

Latest Report: Feb 13, 2016 at 5:20 AM


Visibility: 2 mi

Pressure: 29.45 "Hg

Humidity: 100%

Dew point: 28 °F

Location of GarbsenLocation

Historic Weather in Garbsen — Graph

°F

Garbsen Temperature Yesterday

Maximum temperature yesterday: 43 °F (at 3:50 PM)
Minimum temperature yesterday: 32 °F (at 4:50 AM)
Average temperature yesterday: 36 °F

High & Low Weather Summary for the Past Weeks

 TemperatureHumidityPressure
High55 °F (Feb 7, 11:50 AM)100% (Jan 30, 7:50 PM)30.24 "Hg (Jan 30, 7:50 PM)
Low28 °F (Feb 13, 5:20 AM)59% (Feb 7, 11:50 AM)28.80 "Hg (Feb 9, 6:50 PM)
Average43 °F84%29.70 "Hg
* Reported Jan 29 5:20 AM — Feb 13 5:20 AM, Garbsen, Weather by CustomWeather, © 2016

Note: Actual official high and low records may vary slightly from our data, if they occured in-between our weather recording intervals... More about our weather records

Advertising

Garbsen Weather History for the Previous 24 Hours

 ConditionsComfort  
Time TempWeatherWind HumidityBarometerVisibility
5:20 AM
Sat, Feb 13
28 °FIce fog.6 mph100%29.45 "Hg2 mi
4:20 AM30 °FIce fog.5 mph100%29.45 "Hg3 mi
3:20 AM30 °FClear.6 mph100%29.45 "Hg4 mi
2:20 AM30 °FClear.6 mph100%29.47 "Hg4 mi
1:50 AM32 °FClear.3 mph100%29.47 "Hg4 mi
1:20 AM32 °FClear.2 mph100%29.47 "Hg5 mi
12:50 AM32 °FClear.5 mph93%29.47 "Hg10 mi
12:20 AM34 °FPassing clouds.3 mph93%29.47 "HgN/A
11:50 PM
Fri, Feb 12
32 °FClear.3 mph100%29.47 "Hg10 mi
11:20 PM34 °FClear.3 mph93%29.47 "Hg10 mi
10:20 PM36 °FClear.3 mph93%29.50 "Hg10 mi
9:50 PM34 °FClear.5 mph93%29.50 "Hg10 mi
9:20 PM34 °FClear.6 mph93%29.50 "Hg10 mi
8:50 PM34 °FClear.6 mph93%29.50 "Hg10 mi
8:20 PM34 °FClear.6 mph93%29.50 "Hg10 mi
7:50 PM36 °FClear.6 mph87%29.50 "Hg10 mi
7:20 PM37 °FClear.6 mph87%29.50 "Hg10 mi
6:50 PM37 °FClear.7 mph87%29.50 "Hg10 mi
6:20 PM37 °FPartly cloudy.6 mph87%29.50 "HgN/A
5:50 PM37 °FPassing clouds.6 mph87%29.50 "HgN/A
5:20 PM39 °FPartly sunny.6 mph87%29.50 "HgN/A
4:50 PM41 °FPartly sunny.5 mph76%29.50 "HgN/A
4:20 PM41 °FPartly sunny.5 mph76%29.50 "HgN/A
3:50 PM43 °FPartly sunny.8 mph71%29.53 "HgN/A
3:20 PM41 °FPartly sunny.6 mph76%29.53 "HgN/A
2:50 PM41 °FPartly sunny.5 mph81%29.53 "HgN/A
2:20 PM41 °FPartly sunny.3 mph76%29.53 "HgN/A
1:50 PM41 °FScattered clouds.1 mph81%29.53 "HgN/A
1:20 PM41 °FScattered clouds.5 mph81%29.56 "HgN/A
12:50 PM39 °FScattered clouds.5 mph81%29.56 "HgN/A
12:20 PM39 °FScattered clouds.5 mph81%29.56 "HgN/A
11:50 AM39 °FScattered clouds.3 mph87%29.59 "HgN/A
11:20 AM39 °FPartly sunny.6 mph87%29.59 "HgN/A
10:50 AM39 °FPartly sunny.6 mph87%29.59 "HgN/A
10:20 AM39 °FPartly sunny.5 mph87%29.59 "Hg6 mi
9:50 AM37 °FScattered clouds.6 mph93%29.59 "Hg4 mi
9:20 AM36 °FBroken clouds.5 mph93%29.62 "Hg4 mi
8:50 AM34 °FFog.3 mph100%29.62 "Hg2 mi
8:20 AM32 °FIce fog.1 mph100%29.62 "Hg2 mi
7:50 AM34 °FFog.5 mph100%29.62 "Hg2 mi
7:20 AM34 °FFog.5 mph100%29.62 "Hg3 mi
6:50 AM34 °FFog.3 mph93%29.62 "Hg3 mi
6:20 AM34 °FFog.5 mph93%29.62 "Hg3 mi
Weather by CustomWeather, © 2016

See weather overviewHow to use our weather pages